• în Republica Moldova
  • Lista ţărilor
  • Pe 7 zile
  • Temperatura apei
  • Hartă satelitară
  • Meteo pe hartă
  • Widget-uri
  • user-avatar
    Intrare

    Meteo pe oră la Vlorë

    Astăzi, 21 Octombrie, Sâmbătă

    Timp Temperatura Precipitaţii Vânt Presiune Umiditate
    00:00 +19°C° 0 mm 1 m/s 765 mmHg 86%
    01:00 +19°C° 0 mm 1 m/s 764 mmHg 86%
    02:00 +19°C° 0 mm 1 m/s 764 mmHg 85%
    03:00 +18°C° 0 mm 2 m/s 764 mmHg 85%
    04:00 +17°C° 0 mm 2 m/s 764 mmHg 85%
    05:00 +18°C° 0 mm 2 m/s 764 mmHg 82%
    06:00 +18°C° 0 mm 2 m/s 764 mmHg 79%
    07:00 +19°C° 0 mm 2 m/s 764 mmHg 71%
    08:00 +20°C° 0 mm 2 m/s 764 mmHg 65%
    09:00 +22°C° 0 mm 3 m/s 764 mmHg 58%
    10:00 +25°C° 0 mm 3 m/s 764 mmHg 51%
    11:00 +25°C° 0 mm 3 m/s 764 mmHg 49%
    12:00 +26°C° 0 mm 4 m/s 764 mmHg 47%
    13:00 +27°C° 0 mm 4 m/s 764 mmHg 45%
    14:00 +26°C° 0 mm 5 m/s 763 mmHg 50%
    15:00 +25°C° 0 mm 5 m/s 763 mmHg 55%
    16:00 +23°C° 0 mm 5 m/s 763 mmHg 60%
    17:00 +22°C° 0 mm 5 m/s 763 mmHg 68%
    18:00 +20°C° 0 mm 5 m/s 763 mmHg 76%
    19:00 +19°C° 0 mm 4 m/s 763 mmHg 84%
    20:00 +18°C° 0 mm 4 m/s 763 mmHg 84%
    21:00 +18°C° 0 mm 4 m/s 763 mmHg 84%
    22:00 +18°C° 0 mm 4 m/s 763 mmHg 85%
    23:00 +17°C° 0 mm 4 m/s 763 mmHg 83%

    Mâine, 22 Octombrie, Duminică

    Timp Temperatura Precipitaţii Vânt Presiune Umiditate
    00:00 +17°C° 0 mm 4 m/s 763 mmHg 82%
    01:00 +17°C° 0 mm 4 m/s 763 mmHg 80%
    02:00 +15°C° 0 mm 4 m/s 763 mmHg 77%
    03:00 +15°C° 0 mm 4 m/s 763 mmHg 75%
    04:00 +15°C° 0 mm 4 m/s 762 mmHg 72%
    05:00 +16°C° 0 mm 3 m/s 762 mmHg 68%
    06:00 +17°C° 0 mm 3 m/s 762 mmHg 63%
    07:00 +17°C° 0 mm 3 m/s 762 mmHg 59%
    08:00 +19°C° 0 mm 3 m/s 762 mmHg 56%
    09:00 +21°C° 0 mm 3 m/s 762 mmHg 53%
    10:00 +24°C° 0 mm 3 m/s 762 mmHg 49%
    11:00 +25°C° 0 mm 3 m/s 762 mmHg 49%
    12:00 +26°C° 0 mm 3 m/s 761 mmHg 48%
    13:00 +26°C° 0 mm 3 m/s 761 mmHg 47%
    14:00 +26°C° 0 mm 3 m/s 761 mmHg 51%
    15:00 +25°C° 0 mm 2 m/s 760 mmHg 55%
    16:00 +24°C° 0 mm 2 m/s 760 mmHg 58%
    17:00 +23°C° 0 mm 2 m/s 760 mmHg 64%
    18:00 +21°C° 0 mm 2 m/s 760 mmHg 70%
    19:00 +20°C° 0 mm 2 m/s 760 mmHg 75%
    20:00 +19°C° 0 mm 2 m/s 760 mmHg 75%
    21:00 +19°C° 0 mm 3 m/s 759 mmHg 75%
    22:00 +19°C° 0 mm 3 m/s 759 mmHg 74%
    23:00 +19°C° 0 mm 4 m/s 759 mmHg 75%

    Poimâine, 23 Octombrie, Luni

    Timp Temperatura Precipitaţii Vânt Presiune Umiditate
    00:00 +19°C° 0 mm 4 m/s 758 mmHg 76%
    01:00 +17°C° 0 mm 5 m/s 758 mmHg 77%
    02:00 +17°C° 1 mm 5 m/s 757 mmHg 79%
    03:00 +16°C° 1 mm 5 m/s 757 mmHg 81%
    04:00 +16°C° 1 mm 5 m/s 756 mmHg 83%
    05:00 +16°C° 1,1 mm 5 m/s 756 mmHg 82%
    06:00 +17°C° 1,1 mm 5 m/s 756 mmHg 81%
    07:00 +17°C° 1,1 mm 5 m/s 755 mmHg 80%
    08:00 +19°C° 0,2 mm 5 m/s 755 mmHg 76%
    09:00 +20°C° 0,2 mm 5 m/s 755 mmHg 72%
    10:00 +21°C° 0,2 mm 5 m/s 755 mmHg 68%
    11:00 +20°C° 0,4 mm 5 m/s 754 mmHg 69%
    12:00 +19°C° 0,4 mm 5 m/s 754 mmHg 71%
    13:00 +19°C° 0,4 mm 5 m/s 753 mmHg 73%
    14:00 +18°C° 1 mm 4 m/s 753 mmHg 72%
    15:00 +18°C° 1 mm 4 m/s 752 mmHg 71%
    16:00 +18°C° 1 mm 3 m/s 752 mmHg 70%
    17:00 +17°C° 0,6 mm 4 m/s 752 mmHg 72%
    18:00 +17°C° 0,6 mm 4 m/s 752 mmHg 73%
    19:00 +15°C° 0,6 mm 4 m/s 752 mmHg 74%
    20:00 +15°C° 0,5 mm 5 m/s 752 mmHg 75%
    21:00 +15°C° 0,5 mm 5 m/s 752 mmHg 76%
    22:00 +14°C° 0,5 mm 6 m/s 752 mmHg 77%
    23:00 +14°C° 0,5 mm 5 m/s 752 mmHg 79%

    24 Octombrie, Marţi

    Timp Temperatura Precipitaţii Vânt Presiune Umiditate
    00:00 +14°C° 0,5 mm 5 m/s 752 mmHg 80%
    01:00 +14°C° 0,5 mm 4 m/s 752 mmHg 82%
    02:00 +13°C° 0,7 mm 4 m/s 752 mmHg 82%
    03:00 +13°C° 0,7 mm 5 m/s 751 mmHg 82%
    04:00 +13°C° 0,7 mm 5 m/s 751 mmHg 83%
    05:00 +13°C° 0,4 mm 5 m/s 751 mmHg 80%
    06:00 +13°C° 0,4 mm 5 m/s 752 mmHg 77%
    07:00 +13°C° 0,4 mm 5 m/s 752 mmHg 74%
    08:00 +15°C° 0,1 mm 6 m/s 752 mmHg 67%
    09:00 +16°C° 0,1 mm 7 m/s 752 mmHg 60%
    10:00 +17°C° 0,1 mm 7 m/s 752 mmHg 54%
    11:00 +18°C° 0 mm 8 m/s 752 mmHg 54%
    12:00 +18°C° 0 mm 8 m/s 752 mmHg 53%
    13:00 +18°C° 0 mm 9 m/s 752 mmHg 53%
    14:00 +18°C° 0,1 mm 9 m/s 752 mmHg 55%
    15:00 +17°C° 0,1 mm 9 m/s 752 mmHg 57%
    16:00 +17°C° 0,1 mm 9 m/s 752 mmHg 59%
    17:00 +16°C° 0 mm 9 m/s 753 mmHg 62%
    18:00 +15°C° 0 mm 8 m/s 753 mmHg 65%
    19:00 +15°C° 0 mm 7 m/s 754 mmHg 68%
    20:00 +14°C° 0 mm 7 m/s 754 mmHg 68%
    21:00 +14°C° 0 mm 6 m/s 754 mmHg 68%
    22:00 +14°C° 0 mm 6 m/s 755 mmHg 69%
    23:00 +13°C° 0 mm 6 m/s 755 mmHg 69%

    25 Octombrie, Miercuri

    Timp Temperatura Precipitaţii Vânt Presiune Umiditate
    00:00 +13°C° 0 mm 6 m/s 755 mmHg 70%
    01:00 +13°C° 0 mm 6 m/s 755 mmHg 70%
    02:00 +12°C° 0 mm 7 m/s 755 mmHg 70%
    03:00 +12°C° 0 mm 7 m/s 755 mmHg 70%
    04:00 +11°C° 0 mm 7 m/s 755 mmHg 70%
    05:00 +12°C° 0 mm 7 m/s 756 mmHg 70%
    06:00 +12°C° 0 mm 7 m/s 756 mmHg 69%
    07:00 +14°C° 0 mm 7 m/s 757 mmHg 68%
    08:00 +15°C° 0 mm 7 m/s 757 mmHg 62%
    09:00 +17°C° 0 mm 7 m/s 757 mmHg 56%
    10:00 +20°C° 0 mm 7 m/s 758 mmHg 49%
    11:00 +21°C° 0 mm 8 m/s 758 mmHg 48%
    12:00 +21°C° 0 mm 8 m/s 759 mmHg 46%
    13:00 +22°C° 0 mm 8 m/s 759 mmHg 44%
    14:00 +21°C° 0 mm 8 m/s 759 mmHg 46%
    15:00 +21°C° 0 mm 8 m/s 760 mmHg 48%
    16:00 +21°C° 0 mm 7 m/s 760 mmHg 50%
    17:00 +18°C° 0 mm 7 m/s 761 mmHg 53%
    18:00 +17°C° 0 mm 7 m/s 761 mmHg 56%
    19:00 +16°C° 0 mm 6 m/s 762 mmHg 59%
    20:00 +15°C° 0 mm 6 m/s 762 mmHg 60%
    21:00 +14°C° 0 mm 6 m/s 763 mmHg 61%
    22:00 +14°C° 0 mm 6 m/s 763 mmHg 63%
    23:00 +14°C° 0 mm 6 m/s 763 mmHg 64%

    26 Octombrie, Joi

    Timp Temperatura Precipitaţii Vânt Presiune Umiditate
    00:00 +13°C° 0 mm 6 m/s 764 mmHg 65%
    01:00 +13°C° 0 mm 6 m/s 764 mmHg 66%
    02:00 +13°C° 0 mm 6 m/s 764 mmHg 66%
    03:00 +11°C° 0 mm 6 m/s 764 mmHg 67%
    04:00 +11°C° 0 mm 6 m/s 764 mmHg 68%
    05:00 +11°C° 0 mm 6 m/s 765 mmHg 67%
    06:00 +11°C° 0 mm 6 m/s 765 mmHg 66%
    07:00 +11°C° 0 mm 7 m/s 765 mmHg 65%
    08:00 +14°C° 0 mm 6 m/s 766 mmHg 57%
    09:00 +15°C° 0 mm 6 m/s 766 mmHg 48%
    10:00 +17°C° 0 mm 6 m/s 766 mmHg 39%
    11:00 +19°C° 0 mm 6 m/s 766 mmHg 37%
    12:00 +19°C° 0 mm 6 m/s 766 mmHg 34%
    13:00 +20°C° 0 mm 6 m/s 766 mmHg 32%
    14:00 +18°C° 0 mm 7 m/s 766 mmHg 34%
    15:00 +18°C° 0 mm 7 m/s 766 mmHg 36%
    16:00 +17°C° 0 mm 7 m/s 766 mmHg 37%
    17:00 +16°C° 0 mm 7 m/s 767 mmHg 41%
    18:00 +14°C° 0 mm 7 m/s 767 mmHg 44%
    19:00 +13°C° 0 mm 6 m/s 768 mmHg 47%
    20:00 +11°C° 0 mm 6 m/s 768 mmHg 49%
    21:00 +12°C° 0 mm 5 m/s 769 mmHg 51%
    22:00 +10°C° 0 mm 5 m/s 769 mmHg 53%
    23:00 +10°C° 0 mm 5 m/s 769 mmHg 54%
    Arată mai mult